Flag for Austria Weather past 2 weeks in Wels, Upper Austria, Austria

Now
53 °F

Rain showers. Overcast.


Feels Like: N/A
Forecast: 38 / 50 °F
Wind: N/A

Location: Linz / Hoersching-Flughafen

Current Time: Oct 22, 2014 at 12:23:44 AM

Latest Report: Oct 21, 2014 at 11:00 PM


Visibility: 3 mi

Pressure: 29.61 "Hg

Humidity: 97%

Dew point: 52 °F

Location of WelsLocation

Historic Weather in Wels — Graph

°F

Wels temperature yesterday

Maximum temperature yesterday: 60 °F (at 4:00 PM)
Minimum temperature yesterday: 53 °F (at 10:00 PM)
Average temperature yesterday: 56 °F

Past Weeks' High & Low Weather Summary

 TemperatureHumidityPressure
High71 °F (Oct 12, 4:00 PM)100% (Oct 10, 1:00 AM)30.32 "Hg (Oct 10, 1:00 AM)
Low44 °F (Oct 7, 7:00 AM)54% (Oct 14, 5:00 PM)29.61 "Hg (Oct 21, 11:00 PM)
Average56 °F89%29.97 "Hg
* Reported Oct 6 11:00 PM — Oct 21 11:00 PM, Wels, Weather by CustomWeather, © 2014

Note: Actual official high and low records may vary slightly from our data, if they occured in-between our weather recording intervals... More about our weather records

Advertising

Wels weather history for previous 24 hours

 ConditionsComfort  
Time TempWeatherWind HumidityBarometerVisibility
11:00 PM
Oct 21
53 °FRain showers. Overcast.N/A97%29.61 "Hg3 mi
10:00 PM53 °FRain showers. Passing clouds.N/A97%29.65 "Hg4 mi
9:00 PM54 °FRain showers. Overcast.N/A96%29.68 "Hg6 mi
8:00 PM55 °FRain showers. Overcast.N/A95%29.72 "Hg7 mi
7:00 PM55 °FRain showers. Overcast.N/A94%29.74 "Hg9 mi
6:00 PM56 °FOvercast.N/A92%29.76 "Hg22 mi
5:00 PM58 °FRain showers. Overcast.N/A86%29.79 "Hg22 mi
4:00 PM60 °FOvercast.N/A80%29.81 "Hg28 mi
3:00 PM57 °FOvercast.3 mph86%29.86 "Hg25 mi
2:00 PM57 °FSprinkles. Overcast.5 mph86%29.89 "Hg4 mi
1:00 PM59 °FOvercast.6 mph73%29.91 "Hg22 mi
12:00 PM59 °FPartly sunny.5 mph76%29.93 "Hg28 mi
11:00 AM58 °FPartly sunny.3 mph84%29.94 "Hg14 mi
10:00 AM56 °FOvercast.N/A88%29.95 "Hg25 mi
9:00 AMN/APassing clouds.8 mphN/AN/A2 mi
8:00 AM53 °FOvercast.3 mph93%29.95 "Hg22 mi
7:00 AM55 °FOvercast.3 mph93%29.95 "Hg28 mi
6:00 AM55 °FLight rain. Overcast.5 mph94%29.96 "Hg5 mi
5:00 AM55 °FHeavy rain. Overcast.5 mph94%29.96 "Hg7 mi
4:00 AM56 °FHeavy rain. Overcast.7 mph94%29.97 "Hg5 mi
3:00 AM57 °FLight rain. Overcast.3 mph94%29.97 "Hg10 mi
2:00 AM58 °FHeavy rain. Low clouds.3 mph95%29.98 "Hg5 mi
1:00 AM58 °FHeavy rain. Low clouds.5 mph94%29.98 "Hg5 mi
12:00 AM58 °FSprinkles. Overcast.5 mph94%29.99 "Hg5 mi
Weather by CustomWeather, © 2014

See weather overviewHow to use our weather pages